STARLINK-35107, 65464

Orbit data source: Space-Track

STARLINK-35107, 65464 is a payload satellite owned by SpaceX/Seattle (US) in LEO that was launched on Wed, 03 Sep 2025 UTC via an FALCON 9 launch vehicle from the Air Force Eastern Test Range (AFETR). Payload-class satellites include a variety of spacecraft equipped with specific instruments for various scientific and technological missions. These include communications satellites like Starlink; space stations such as the ISS; scientific satellites like the Hubble; Earth observation satellites from companies like Planet Labs, Umbra, and HawkEye 360; GPS; miniature CubeSats for education and research; and military/defense satellites.

Loading next visibility...
Identifier
65464, 2025-195G
Orbit
LEO
Country
Flag of USUS
Related business
Manufacturer
SpaceX/Seattle
Mission
Operational Commercial Communications
Bus & Motor
STARLINK V2MO, Unknown motor
Mass
575 kg wet, ~530 kg dry
Launch date (UTC)
2025-09-03 (10 months ago)
Launch vehicle
FALCON 9
Launch site
Air Force Eastern Test Range (AFETR)
Object type
Payload
Rocket body
Debris
Shape & HBR
Box + 2 Pan, 17.7 m
Radar Cross Section
36.964 m², Large (>1 m²)

Expand to show TLE details & history
Last TLE update: 18 hours ago

TLE from 18 hours ago
0 STARLINK-35107
1 65464U 25195G   26171.21425497  .00020067  00000-0  65623-3 0  9998
2 65464  53.1577 141.0469 0000817  96.1991 263.9103 15.31721534 45703
Epoch: 2026-06-20T05:08Z
TLE epoch observation values (Epoch: 2026-06-20T05:08:31.629Z)
Latitude
-0.00006°
Longitude
155.48298°
Altitude
471.635 km
Speed
7.631 km/s
True Right ascension
09h 24m 11s
True Declination
0° 00' 00"
Sunlit
Object was in daylight at epoch
Visualization orbit readout
Latitude
Unknown
Longitude
Unknown
Altitude
Unknown
Speed
Unknown
Apparent Right ascension
Unknown
Apparent Declination
Unknown
Sunlit
N/A
Visualization observer readout
Local Sidereal Time
10:19:04
Azimuth
Unknown
Elevation
Unknown
Doppler factor
Unknown
Orbital elements
Apogee altitude
471.492 km
Perigee altitude
470.373 km
Semi-major axis
6,849.07 km
Eccentricity
0.00008
Inclination
53.1577°
RAAN
141.0469°
Arg. of periapsis
96.1991°
True anomaly
263.90099°
Mean anomaly
263.9103°
Eccentric anomaly
263.90565°
Mean motion
3.82909 °/min
Orbital period
94.02 mins
BSTAR
0.00065623
Loading maneuver chart data...
Computing Atmospheric mass density...
Loading historical data...
Loading historical data...
Loading historical data...
Loading historical data...
Loading historical data...
Loading historical data...
Loading historical data...

Documentation

Showing up to 5 results
|